Погода в Залесье

Россия / Ивановская область     57°01′12″N   40°45′39″E
темп.,
°C
ветер,
м/с
пор.,
м/с
влажн.,
%
обл.,
%
осадки,
мм/ч
давл.,
гПа
погр.,
м
8 мая, сб
сб800:00+5ю3670100 0.0 1014112
03:00+4ю3874100 0.0 1014147
06:00+6ююв41265100 0.0 1014353
09:00+12ююв51152100 0.0 10131124
12:00+13ююв61151100 0.0 10111904
15:00+12ююв61256100 0.1 10091744
18:00+9юв61487100 4.0 10071353
21:00+8юв61592100 9.4 10041029
9 мая, вс
вс900:00+9ююв61494100 4.1 10011088
03:00+10ю3996100 4.2 1001458
06:00+10ю5990100 0.5 1001742
09:00+6зсз5895100 1.3 1004558
12:00+3зсз61397100 0.6 1009622
15:00+5сз61291100 0.8 1013967
18:00+8сз6137512 0.1 10161492
21:00+4зсз37925 0.1 1019155
10 мая, пн
пн1000:00+2зсз26920 0.0 1022100
03:00+2сз38910 0.0 1024154
06:00+3ссз27840 0.0 1027201
09:00+9ссз34570 0.0 1028832
12:00+13ссз23425 0.0 10291438
15:00+14ссз23395 0.0 10291587
18:00+13ссз12495 0.0 1029674
21:00+8юв116510 0.0 103010
11 мая, вт
вт1100:00+8ююз116484 0.0 103113
03:00+6ю11705 0.0 103210
06:00+8ююв127041 0.0 103272
09:00+14юв234954 0.0 1032578
12:00+17вюв23435 0.0 10321101
15:00+18в23445 0.0 10311199
18:00+17в24566 0.0 1030557
21:00+11вюв22797 0.0 103023
12 мая, ср
ср1200:00+9в227767 0.0 103139
03:00+8вюв238176 0.0 103157
06:00+9в2777100 0.0 1031182
09:00+16в465260 0.0 1030578
12:00+19вюв45405 0.0 10291108
15:00+21в44390 0.0 10281224
18:00+19в36539 0.0 1028442
21:00+13в36741 0.0 102897